Regional Weather Roundup
Issued by NWS

Home | Current Version | Previous Version | Text Only | Print | Product List | Glossary Off
Versions: 1 2 3 4 5 6 7 8 9 10 11 12 13 14 15 16 17 18 19 20 21 22 23 24 25 26 27 28 29 30 31 32 33 34 35 36 37 38 39 40 41 42 43 44 45 46 47 48 49 50

000
ASUS45 KABQ 301510
RWRNM
NEW MEXICO REGIONAL WEATHER ROUNDUP
NATIONAL WEATHER SERVICE ALBUQUERQUE NM
900 AM MDT SAT MAY 30 2015

NOTE: "FAIR" MEANS FEW OR NO CLOUDS BELOW 12,000 FEET AGL WITH NO
       SIGNIFICANT WEATHER OR OBSTRUCTIONS TO VISION.

      THIS PRODUCT IS RELEASED AS TWO VERSIONS.  ONE VERSION NEAR
      THE TOP OF THE HOUR CONTAINING PRELIMINARY DATA FROM ALBUQUERQUE
      AND OTHER STATIONS.  A FINAL VERSION WITH ADDITIONAL DATA IS
      ISSUED ABOUT 10 MINUTES AFTER THE HOUR.

NMZ501-503-504-510>518-301600-
NORTHWEST PLATEAU/NORTHCENTRAL MOUNTAINS

CITY           SKY/WX    TMP DP  RH WIND       PRES   REMARKS
FARMINGTON     SUNNY     60  34  37 E7        30.26S
LOS ALAMOS     PTSUNNY   55  43  64 S10G20    30.40R
SANTA FE       SUNNY     61  42  49 S14       30.36R
TAOS           SUNNY     55  37  50 CALM      30.39S
ANGEL FIRE     FAIR      51  39  62 CALM      30.43S

$$
NMZ402-403-502-505>509-301600-
WESTCENTRAL MOUNTAINS/SOUTHWEST MOUNTAINS

CITY           SKY/WX    TMP DP  RH WIND       PRES   REMARKS
GALLUP         SUNNY     60  33  36 NE6       30.31S
GRANTS         SUNNY     62  42  49 SE15      30.34S
SILVER CITY      N/A     75  32  20 NE6       30.24R

$$
NMZ407-409-411-412-301600-
SOUTHERN DESERTS

CITY           SKY/WX    TMP DP  RH WIND       PRES   REMARKS
LORDSBURG      FAIR      73  25  16 SE8       30.15R
DEMING         SUNNY     75  44  33 NE22G30   30.16R
LAS CRUCES     SUNNY     73  47  39 SE6       30.20R
HOLLOMAN AFB   SUNNY     71  48  43 SE10      30.17R
ALAMOGORDO     SUNNY     73  46  38 S13       30.19R
T OR C         SUNNY     68  47  46 NE18G28   30.23R

$$
NMZ519>523-301600-
CENTRAL VALLEYS/CENTRAL HIGHLANDS

CITY           SKY/WX    TMP DP  RH WIND       PRES   REMARKS
ALBUQUERQUE    MOSUNNY   66  46  48 SE21G28   30.30R
DOUBLE EAGLE   MOSUNNY   63  46  55 E14       30.33R
MORIARTY ARPT  CLOUDY    57  43  59 SE8       30.38S
CLINES CORNERS PTSUNNY   54  42  64 E16       30.38R
BELEN          FAIR      65  45  47 W7        30.29S
SOCORRO        FAIR      65  47  52 CALM      30.28S

$$
NMZ524>526-539-540-301600-
SOUTHCENTRAL MOUNTAINS

CITY           SKY/WX    TMP DP  RH WIND       PRES   REMARKS
RUIDOSO        SUNNY     55  43  62 SE12      30.40S

$$
NMZ527>531-301600-
NORTHEAST HIGHLANDS/NORTHEAST PLAINS

CITY           SKY/WX    TMP DP  RH WIND       PRES   REMARKS
LAS VEGAS      CLOUDY    54  44  69 S6        30.39S
RATON          SUNNY     55  44  66 SW3       30.34S
CLAYTON        CLOUDY    55  48  77 N8        30.33R

$$
NMZ532>537-301600-
EASTCENTRAL PLAINS

CITY           SKY/WX    TMP DP  RH WIND       PRES   REMARKS
TUCUMCARI      CLOUDY    57  51  80 E7        30.32R
CANNON AFB     MOSUNNY   58  52  80 NE21      30.29F
CLOVIS AIRPORT PTSUNNY   57  52  82 NE21      30.30F

$$
NMZ028-029-538-301600-
SOUTHEAST PLAINS

CITY           SKY/WX    TMP DP  RH WIND       PRES   REMARKS
ROSWELL        SUNNY     65  54  67 NE14      30.27R
ARTESIA        MOSUNNY   64  57  77 N17G23    30.26R
CARLSBAD       MOSUNNY   68  55  63 NW14      30.22R
HOBBS          SUNNY     63  59  88 NE13      30.25R


$$



USA.gov is the U.S. government's official web portal to all federal, state and local government web resources and services.